Location: Grandin
(36.0440°N, 81.4159°W)
Time: 17:20:07
(UTC+00:00)

Envisat - Visible Passes

Search period start: 06 July 2022 00:00
Search period end: 16 July 2022 00:00
Orbit: 764 x 765 km, 98.2° (Epoch: 05 July)

Date Brightness Start Highest point End Pass type
(mag) Time Alt. Az. Time Alt. Az. Time Alt. Az.
06 Jul 4.3 09:24:21 10° NNE 09:29:08 41° E 09:33:54 10° SSE visible
07 Jul 5.5 08:48:39 10° NE 08:51:59 17° E 08:55:17 10° SE visible
09 Jul 4.7 09:12:48 10° NE 09:17:18 31° E 09:21:46 10° SSE visible
10 Jul 5.7 08:37:45 10° ENE 08:40:05 13° E 08:42:25 10° ESE visible
11 Jul 3.7 09:37:31 10° NNE 09:42:32 57° E 09:47:30 10° S visible
12 Jul 5.1 09:01:21 10° NE 09:05:26 24° E 09:09:30 10° SSE visible
14 Jul 4.2 09:25:53 10° NNE 09:30:43 43° E 09:35:31 10° S visible
15 Jul 5.5 08:50:04 10° NE 08:53:34 19° E 08:57:03 10° SE visible
